Superior, WI

12:35 PM CST on November 21, 2017 (GMT -0600)
Bong

Weather History for KSUW - October, 2011

Change the Weather History Date:

Tuesday, October 18, 2011

  Actual Average Record
Temperature  
Mean Temperature 40 °F -  
Max Temperature 42 °F 51 °F 80 °F (1953)
Min Temperature 39 °F 34 °F 18 °F (1954)
Degree Days  
Heating Degree Days 24    
Moisture  
Dew Point 33 °F    
Average Humidity 74    
Maximum Humidity 87    
Minimum Humidity 61    
Precipitation  
Precipitation 0.00 in - - ()
Sea Level Pressure  
Sea Level Pressure 29.93 in    
Wind  
Wind Speed 9 mph (NNW)    
Max Wind Speed 15 mph    
Max Gust Speed 18 mph    
Visibility 10 miles    
Events Rain    
Averages and records for this station are not official NWS values.
T = Trace of Precipitation, MM = Missing Value Source: NWS Daily Summary

Daily Weather History Graph

Daily Weather History Graph

Search for Another Location

Airport or City:

Trip Planner

Search our weather history database for the weather conditions in past years. The results will help you decide how hot, cold, wet, or windy it might be!

Date:

Astronomy

Oct. 18, 2011 Rise Set
Actual Time 7:29 AM CDT 6:16 PM CDT
Civil Twilight 6:59 AM CDT 6:47 PM CDT
Nautical Twilight 6:24 AM CDT 7:22 PM CDT
Astronomical Twilight 5:49 AM CDT 7:57 PM CDT
Moon 10:45 PM CDT (10/18) 1:34 PM CDT (10/18)
Length of Visible Light 11h 47m
Length of Day
10h 46m
Waning Gibbous, 64% of the Moon is Illuminated
Oct 18
Waning Gibbous
Oct 19
Last Quarter
Oct 26
New
Nov 2
First Quarter
Nov 10
Full

Hourly Weather History & Observations

Time (CDT) Temp. Windchill Dew Point Humidity Pressure Visibility Wind Dir Wind Speed Gust Speed Precip Events Conditions
12:15 AM 42.8 °F 35.4 °F 35.6 °F 76% 29.83 in 10.0 mi NW 15.0 mph 18.4 mph N/A Rain Light Rain
12:35 AM 42.8 °F 37.0 °F 35.6 °F 76% 29.83 in 10.0 mi NW 10.4 mph - N/A   Light Drizzle
12:55 AM 42.8 °F 38.0 °F 35.6 °F 76% 29.83 in 10.0 mi NW 8.1 mph - N/A Rain Light Rain
1:15 AM 42.8 °F 38.6 °F 35.6 °F 76% 29.83 in 10.0 mi NNW 6.9 mph - N/A   Light Drizzle
1:35 AM 42.8 °F 38.6 °F 35.6 °F 76% 29.83 in 10.0 mi NW 6.9 mph - N/A Rain Light Rain
1:55 AM 41.0 °F 36.4 °F 35.6 °F 81% 29.83 in 10.0 mi NW 6.9 mph - N/A   Drizzle
2:15 AM 41.0 °F 37.1 °F 35.6 °F 81% 29.83 in 10.0 mi NW 5.8 mph - N/A   Light Drizzle
2:55 AM 41.0 °F 34.7 °F 35.6 °F 81% 29.84 in 10.0 mi NW 10.4 mph - N/A Rain Light Rain
3:15 AM 41.0 °F 38.0 °F 35.6 °F 81% 29.84 in 10.0 mi WNW 4.6 mph - N/A   Drizzle
3:35 AM 39.2 °F 33.6 °F 35.6 °F 87% 29.84 in 10.0 mi NW 8.1 mph - N/A   Drizzle
3:55 AM 39.2 °F 35.0 °F 35.6 °F 87% 29.84 in 10.0 mi NW 5.8 mph - N/A   Drizzle
4:15 AM 39.2 °F 37.0 °F 35.6 °F 87% 29.85 in 10.0 mi WNW 3.5 mph - N/A Rain Rain
4:35 AM 39.2 °F 33.0 °F 35.6 °F 87% 29.85 in 10.0 mi NNW 9.2 mph - N/A   Light Drizzle
4:55 AM 39.2 °F 34.2 °F 35.6 °F 87% 29.86 in 10.0 mi NW 6.9 mph - N/A   Overcast
5:15 AM 41.0 °F 36.4 °F 33.8 °F 76% 29.86 in 10.0 mi NW 6.9 mph - N/A   Overcast
5:35 AM 39.2 °F 31.6 °F 33.8 °F 81% 29.87 in 10.0 mi NW 12.7 mph 17.3 mph N/A   Overcast
6:15 AM 41.0 °F 35.8 °F 32.0 °F 70% 29.88 in 10.0 mi NNW 8.1 mph - N/A   Overcast
6:35 AM 39.2 °F 34.2 °F 32.0 °F 75% 29.88 in 10.0 mi NW 6.9 mph - N/A   Overcast
6:55 AM 39.2 °F 35.9 °F 32.0 °F 75% 29.89 in 10.0 mi NNW 4.6 mph - N/A   Overcast
7:15 AM 39.2 °F 35.9 °F 32.0 °F 75% 29.90 in 10.0 mi North 4.6 mph - N/A   Overcast
7:35 AM 39.2 °F 35.0 °F 32.0 °F 75% 29.91 in 10.0 mi NNW 5.8 mph - N/A   Overcast
7:55 AM 39.2 °F 35.0 °F 32.0 °F 75% 29.91 in 10.0 mi NNW 5.8 mph - N/A   Overcast
8:15 AM 39.2 °F 35.0 °F 33.8 °F 81% 29.92 in 10.0 mi NW 5.8 mph - N/A   Overcast
8:35 AM 39.2 °F 33.6 °F 33.8 °F 81% 29.93 in 10.0 mi NW 8.1 mph - N/A   Overcast
9:15 AM 39.2 °F 37.0 °F 32.0 °F 75% 29.95 in 10.0 mi NNW 3.5 mph - N/A   Overcast
9:35 AM 39.2 °F 33.6 °F 33.8 °F 81% 29.95 in 10.0 mi NW 8.1 mph - N/A   Overcast
9:55 AM 41.0 °F 35.2 °F 32.0 °F 70% 29.96 in 10.0 mi NW 9.2 mph - N/A   Overcast
10:15 AM 41.0 °F 35.8 °F 32.0 °F 70% 29.96 in 10.0 mi NNW 8.1 mph - N/A   Overcast
10:35 AM 41.0 °F 35.8 °F 32.0 °F 70% 29.96 in 10.0 mi NNW 8.1 mph - N/A   Overcast
10:55 AM 41.0 °F 36.4 °F 32.0 °F 70% 29.97 in 10.0 mi North 6.9 mph - N/A   Overcast
11:15 AM 41.0 °F 36.4 °F 32.0 °F 70% 29.97 in 10.0 mi NNW 6.9 mph - N/A   Overcast
11:55 AM 42.8 °F 37.5 °F 33.8 °F 70% 29.98 in 10.0 mi NW 9.2 mph - N/A   Overcast
12:15 PM 42.8 °F 38.0 °F 33.8 °F 70% 29.98 in 10.0 mi NNW 8.1 mph - N/A   Overcast
12:35 PM 42.8 °F 38.0 °F 33.8 °F 70% 29.98 in 10.0 mi NW 8.1 mph - N/A   Overcast
12:55 PM 42.8 °F 37.5 °F 32.0 °F 66% 29.97 in 10.0 mi North 9.2 mph - N/A   Overcast
1:15 PM 42.8 °F 36.6 °F 33.8 °F 70% 29.97 in 10.0 mi NW 11.5 mph - N/A   Overcast
1:35 PM 42.8 °F 36.6 °F 33.8 °F 70% 29.97 in 10.0 mi North 11.5 mph 16.1 mph N/A   Overcast
2:15 PM 42.8 °F 37.5 °F 33.8 °F 70% 29.97 in 10.0 mi NNW 9.2 mph 16.1 mph N/A   Overcast
2:35 PM 42.8 °F 37.0 °F 33.8 °F 70% 29.97 in 10.0 mi NW 10.4 mph - N/A   Overcast
2:55 PM 42.8 °F 37.5 °F 33.8 °F 70% 29.97 in 10.0 mi NW 9.2 mph - N/A   Overcast
3:15 PM 42.8 °F 36.2 °F 33.8 °F 70% 29.97 in 10.0 mi NNW 12.7 mph - N/A   Overcast
3:35 PM 42.8 °F 38.0 °F 33.8 °F 70% 29.97 in 10.0 mi NNW 8.1 mph - N/A   Overcast
3:55 PM 42.8 °F 37.5 °F 33.8 °F 70% 29.97 in 10.0 mi NNW 9.2 mph - N/A   Overcast
4:15 PM 42.8 °F 38.6 °F 33.8 °F 70% 29.97 in 10.0 mi North 6.9 mph - N/A   Overcast
4:35 PM 42.8 °F 36.6 °F 32.0 °F 66% 29.98 in 10.0 mi NNW 11.5 mph - N/A   Overcast
4:55 PM 42.8 °F 38.6 °F 32.0 °F 66% 29.98 in 10.0 mi NNW 6.9 mph - N/A   Overcast
5:15 PM 42.8 °F 38.6 °F 32.0 °F 66% 29.98 in 10.0 mi NNW 6.9 mph - N/A   Overcast
5:35 PM 42.8 °F 38.0 °F 30.2 °F 61% 29.99 in 10.0 mi NNW 8.1 mph - N/A   Overcast
5:55 PM 42.8 °F 39.3 °F 32.0 °F 66% 30.00 in 10.0 mi North 5.8 mph - N/A   Overcast
6:15 PM 42.8 °F 38.6 °F 30.2 °F 61% 30.01 in 10.0 mi NNW 6.9 mph - N/A   Overcast
6:35 PM 42.8 °F 41.1 °F 32.0 °F 66% 30.01 in 10.0 mi North 3.5 mph - N/A   Overcast
6:55 PM 42.8 °F 38.0 °F 32.0 °F 66% 30.02 in 10.0 mi NNW 8.1 mph - N/A   Overcast
7:15 PM 42.8 °F 38.6 °F 33.8 °F 70% 30.03 in 10.0 mi North 6.9 mph - N/A   Overcast
7:35 PM 41.0 °F 37.1 °F 33.8 °F 76% 30.04 in 10.0 mi NNW 5.8 mph - N/A   Overcast
8:15 PM 41.0 °F 36.4 °F 33.8 °F 76% 30.05 in 10.0 mi NNW 6.9 mph - N/A   Light Drizzle
8:35 PM 39.2 °F 35.0 °F 33.8 °F 81% 30.05 in 10.0 mi North 5.8 mph - N/A   Light Drizzle
8:55 PM 39.2 °F 35.9 °F 33.8 °F 81% 30.05 in 10.0 mi NNW 4.6 mph - N/A   Light Drizzle
9:15 PM 39.2 °F 35.0 °F 33.8 °F 81% 30.05 in 10.0 mi North 5.8 mph - N/A   Light Drizzle
9:35 PM 39.2 °F 34.2 °F 33.8 °F 81% 30.05 in 10.0 mi NNW 6.9 mph - N/A   Light Drizzle
9:55 PM 39.2 °F 34.2 °F 33.8 °F 81% 30.05 in 10.0 mi North 6.9 mph - N/A Rain Light Rain
10:15 PM 39.2 °F 35.9 °F 35.6 °F 87% 30.05 in 10.0 mi North 4.6 mph - N/A Rain Light Rain
10:35 PM 39.2 °F - 35.6 °F 87% 30.05 in 10.0 mi Calm Calm - N/A   Light Drizzle
10:55 PM 39.2 °F 35.0 °F 35.6 °F 87% 30.06 in 10.0 mi North 5.8 mph - N/A   Light Drizzle
11:15 PM 39.2 °F 35.0 °F 33.8 °F 81% 30.05 in 10.0 mi North 5.8 mph - N/A   Overcast
11:35 PM 39.2 °F 35.9 °F 33.8 °F 81% 30.05 in 10.0 mi North 4.6 mph - N/A   Overcast
11:55 PM 39.2 °F 35.0 °F 33.8 °F 81% 30.05 in 10.0 mi North 5.8 mph - N/A   Overcast